Regional Weather Roundup
Issued by NWS

Home | Current Version | Previous Version | Text Only | Print | Product List | Glossary On
Versions: 1 2 3 4 5 6 7 8 9 10 11 12 13 14 15 16 17 18 19 20 21 22 23 24 25 26 27
000
ASCA42 TJSJ 240010
RWRPR
PUERTO RICO/U.S. VIRGIN ISLANDS HOURLY WEATHER ROUNDUP
NATIONAL WEATHER SERVICE SAN JUAN PR
800 PM AST SUN JUL 23 2017

PRZ001>002-007>008-010-240100-
PUERTO RICO

CITY           SKY/WX    TMP DP  RH WIND       PRES   REMARKS
SAN JUAN LMM   PTCLDY    84  79  84 E8        30.05R HX  96
AGUADILLA      PTCLDY    81  77  89 E12       30.05R
CEIBA          CLOUDY    84  77  79 E10       30.07R HX  94
$$

VIZ001>002-240100-
U.S. VIRGIN ISLANDS

CITY           SKY/WX    TMP DP  RH WIND       PRES   REMARKS
CHARLOTTE AMA  CLEAR     82  77  83 E12         N/A  HX  91
CHRISTIANSTED  PTCLDY    82  77  83 NE9       30.06R HX  91
$$

HOURLY WEATHER ROUNDUP FOR THE NEWS MEDIA

CITY           SKY/WX    TMP DP  RH WIND       PRES   REMARKS
NEW YORK       MOCLDY    74  69  85 E13       29.85S
NEWARK         MOCLDY    75  67  76 SE9       29.84R
CHICAGO        CLOUDY    73  63  70 CALM      29.81R
HARTFORD       CLOUDY    65  55  70 NE5       29.90R
BOSTON         CLOUDY    65  54  67 E9        29.92R
DALLAS         CLOUDY    97  68  38 S13       29.80S HX 102
PHILADELPHIA   RAIN      74  70  87 E9        29.81  FOG
LOS ANGELES    MOSUNNY   75  66  73 W13       29.83S
WASHINGTON DC  MOCLDY    77  71  82 E3        29.77R



USA.gov is the U.S. government's official web portal to all federal, state and local government web resources and services.